Location: Alsip
(41.6689°N, 87.7387°W)
Time: 13:37:46
(UTC+00:00)

Cosmos 2082 Rocket - Pass Details

Date: 14 July 2020
Orbit: 833 x 853 km, 71.0° (Epoch: 04 August)

Event Time Altitude Azimuth Distance (km) Brightness Sun altitude
Exits shadow 07:28:10 29° 141° (SE) 1,511 3.2 -23.3°
Maximum altitude 07:29:58 36° 105° (ESE) 1,319 3.2 -23.2°
Drops below altitude 10° 07:35:08 10° 40° (NE) 2,487 5.7 -22.8°
Sets 07:37:45 0° 32° (NNE) 3,425 6.8 -22.6°
